GFSNIL_850_spd_117.txt.gz
Wind_Speed
30 30 31 33 35 38 40 42 43 44 46 48 38 37 48 44 42 42 42 42 46 42
30 30 32 34 36 39 40 41 41 44 45 46 45 39 42 46 42 42 44 45 45 45
31 31 32 34 35 36 39 39 38 40 43 44 46 42 40 45 45 42 43 47 45 45
27 29 31 31 31 32 35 35 37 39 42 46 47 47 42 47 50 45 47 48 50 46
24 25 26 26 25 23 27 32 34 35 35 36 42 46 41 50 48 49 49 49 51 49
21 21 22 21 21 21 20 22 27 35 34 29 28 40 46 47 48 46 44 46 50 49
22 20 19 17 17 16 16 16 21 26 30 29 27 30 41 45 46 44 44 45 47 44
26 24 19 18 16 15 15 17 13 11 11 23 30 35 39 39 41 40 37 38 36 40
29 30 29 28 26 22 23 28 20 15 19 8 20 27 28 30 34 31 31 35 38 39
30 32 36 36 36 37 38 38 39 29 32 28 14 21 16 25 31 24 30 33 36 36
32 35 38 40 41 42 44 46 47 44 43 41 37 27 22 26 24 26 30 29 30 32
32 37 39 42 44 45 47 49 50 50 51 50 45 36 31 26 25 25 25 19 15 15
29 32 36 38 41 44 46 49 50 52 51 51 51 45 39 36 30 35 31 26 24 17
31 33 34 34 36 37 40 42 46 48 49 49 48 48 45 40 39 37 36 36 33 30

GFSNIL_850_spd_120.txt.gz
Wind_Speed
27 29 30 32 34 36 38 38 37 37 39 40 40 41 39 39 35 42 42 43 45 46
27 28 30 31 32 34 35 37 38 39 41 42 43 40 39 40 43 37 46 43 45 45
27 27 28 29 32 33 34 34 36 36 37 38 37 37 36 41 43 41 43 47 46 48
26 27 27 28 29 31 31 32 35 35 35 35 35 37 37 39 41 45 44 48 48 48
25 26 25 25 26 26 28 29 31 31 32 34 35 35 38 40 42 49 41 49 49 50
23 24 23 22 21 22 23 24 25 28 31 31 33 37 38 41 39 45 44 48 49 47
23 23 23 20 18 17 18 19 18 19 21 25 28 29 33 35 30 41 44 43 42 48
20 22 23 22 19 18 17 16 14 18 14 17 21 25 27 26 26 34 40 37 41 45
22 23 25 26 25 25 25 25 26 25 25 16 12 13 16 24 25 27 35 40 41 41
27 28 28 28 30 31 33 34 37 37 34 34 28 13 13 20 12 10 18 17 27 30
27 29 31 33 36 38 41 43 45 44 43 40 38 36 29 21 14 16 13 13 16 29
23 24 27 31 34 38 42 46 48 49 48 47 45 41 43 37 31 29 27 22 15 11
24 27 29 29 31 34 38 41 44 46 49 51 52 46 43 41 37 36 37 37 33 29
25 27 29 30 32 34 38 40 43 44 45 46 46 46 46 44 44 43 41 37 36 33

GFSNIL_850_spd_123.txt.gz
Wind_Speed
27 28 27 27 28 29 30 30 30 30 29 30 33 35 37 38 38 38 37 34 39 41
26 26 28 28 28 29 29 30 31 30 29 29 32 34 36 40 39 39 39 42 36 42
25 26 26 26 27 27 27 28 30 29 28 29 29 31 32 34 34 35 38 38 47 43
24 24 25 25 24 25 25 25 27 28 29 31 31 31 32 31 30 30 34 37 40 48
23 23 23 23 22 22 23 23 25 26 29 30 31 32 35 32 31 33 33 32 38 51
22 22 22 23 22 20 20 20 21 22 25 30 31 33 33 35 35 35 37 36 34 46
22 23 23 21 21 21 20 19 18 19 21 23 25 28 31 33 31 31 35 33 34 38
25 22 22 22 23 23 23 22 22 21 23 23 21 23 27 26 23 27 29 27 28 34
28 27 28 27 28 29 30 31 30 30 31 28 24 18 14 15 10 20 22 29 25 31
27 28 29 32 33 36 38 38 39 38 38 35 29 30 22 10 12 12 15 17 22 20
25 24 26 28 30 33 37 40 42 44 44 40 35 33 35 33 30 31 21 18 12 6
26 26 27 29 29 30 32 36 39 41 44 47 46 41 38 38 38 40 39 33 27 19
25 25 25 27 29 30 33 36 39 40 41 41 43 44 43 43 44 44 43 40 37 33
22 22 24 26 27 29 30 32 37 39 41 43 43 42 42 41 43 44 43 40 39 34

GFSNIL_850_spd_129.txt.gz
Wind_Speed
23 24 25 25 26 26 26 27 27 27 28 28 28 29 31 33 32 34 35 37 40 42
23 23 22 22 22 23 24 25 26 27 28 28 28 28 29 31 30 30 33 35 36 40
22 21 21 21 22 21 22 23 24 24 24 26 27 28 29 30 28 27 30 31 33 35
22 22 21 20 21 21 20 20 20 21 22 24 26 27 29 30 30 30 30 30 32 34
24 24 23 22 20 19 19 19 20 19 19 21 21 23 26 27 28 32 34 32 33 35
25 26 26 24 23 22 21 21 19 18 21 21 21 23 25 27 28 31 32 34 35 36
20 21 23 23 24 26 26 24 22 23 25 25 24 22 20 17 18 20 25 26 27 30
16 16 17 18 20 24 28 31 31 31 31 30 27 23 19 16 16 14 10 6 12 17
16 17 20 21 21 21 24 27 30 34 37 37 30 22 21 22 29 28 20 13 4 8
16 17 20 22 22 24 28 28 29 31 35 40 40 34 32 33 35 36 36 30 24 15
17 17 18 19 21 23 26 29 31 34 37 37 38 38 38 39 41 43 45 44 38 33
16 17 19 21 22 24 26 29 33 34 36 39 40 41 40 37 40 44 46 46 46 43
15 17 22 24 24 25 27 30 32 35 37 38 40 40 41 41 43 43 42 42 43 43
15 17 20 24 25 27 28 29 32 34 37 38 39 39 39 40 41 41 41 43 43 41

GFSNIL_850_spd_135.txt.gz
Wind_Speed
15 15 13 15 16 15 17 17 19 21 20 20 21 22 23 25 26 26 28 29 30 34
15 15 14 15 15 15 16 17 18 19 19 19 20 20 21 22 24 25 27 30 32 34
14 15 15 14 16 18 17 18 18 18 19 19 19 20 20 20 21 23 25 26 27 29
12 13 14 15 17 20 19 19 19 20 20 21 21 20 20 19 18 19 21 22 24 28
11 12 13 14 15 18 19 19 21 21 22 22 23 23 21 20 21 21 23 23 22 23
10 12 13 13 14 16 18 19 20 21 24 24 25 25 21 20 20 20 22 22 21 22
9 11 12 13 14 15 16 17 18 20 20 21 25 27 24 20 21 22 22 21 18 17
8 9 10 10 11 13 14 16 17 18 19 21 23 23 25 24 24 24 24 23 20 17
6 8 9 10 11 12 13 14 17 18 19 24 25 22 22 25 28 30 31 31 26 23
7 8 9 10 11 12 13 13 16 19 20 23 25 23 24 25 25 28 31 34 34 31
7 8 10 10 10 11 13 16 17 20 22 23 26 25 25 26 27 29 30 30 33 33
7 7 9 9 10 11 12 15 18 21 23 25 26 27 26 26 28 29 30 31 32 33
7 8 9 9 11 12 13 14 14 17 21 24 27 27 29 28 26 29 29 29 31 34
7 8 9 10 11 11 12 14 14 15 18 22 25 26 26 27 28 27 29 31 32 33

GFSNIL_850_spd_138.txt.gz
Wind_Speed
13 13 14 15 16 17 18 18 20 21 20 21 21 20 21 22 22 21 22 23 23 26
12 12 13 14 15 16 18 18 19 20 19 21 22 22 21 21 21 22 21 21 23 25
10 10 11 12 14 16 17 18 19 21 21 20 22 21 20 21 21 22 22 22 25 26
8 8 9 11 12 14 15 17 20 21 22 23 25 25 20 20 22 23 23 24 24 23
6 8 9 10 12 13 15 16 17 19 20 22 26 27 21 23 24 23 23 25 24 23
3 6 8 11 13 13 14 15 16 18 20 21 23 25 24 24 25 22 21 22 23 22
3 4 6 8 9 9 11 14 15 16 19 20 22 22 24 24 27 26 24 22 20 23
2 4 5 6 7 8 10 14 16 15 18 20 22 24 22 20 22 26 28 27 24 23
3 4 6 7 8 9 11 12 14 16 17 20 22 20 20 21 22 23 26 31 31 29
5 5 6 8 9 11 12 12 15 16 16 19 22 20 20 22 21 24 27 31 33 31
5 6 7 7 8 10 11 13 16 17 18 19 22 21 19 21 24 25 27 29 33 33
6 6 7 8 9 10 11 12 15 17 18 21 22 23 21 20 22 26 27 29 30 32
7 7 8 9 10 11 12 13 13 15 18 19 21 24 24 23 23 25 27 27 28 31
8 8 9 11 12 11 12 12 13 13 15 18 20 21 25 25 23 24 26 27 30 32

GFSNIL_850_spd_141.txt.gz
Wind_Speed
9 11 12 13 15 16 18 20 21 21 21 21 20 19 18 15 15 15 14 14 13 14
7 8 10 11 12 13 15 16 17 19 20 22 23 21 18 18 18 18 16 15 15 17
7 7 8 9 11 12 13 13 15 17 19 22 23 22 21 22 21 19 18 17 18 18
7 8 9 9 10 11 12 13 14 16 16 18 20 20 21 25 25 23 22 19 19 19
4 5 7 8 9 9 11 10 12 14 16 17 18 18 19 23 25 26 24 22 19 20
1 3 4 5 6 8 9 10 11 14 16 17 18 18 18 19 22 25 26 25 23 23
2 0 1 2 4 6 8 9 11 13 16 16 17 19 19 21 21 22 24 25 24 23
2 1 1 2 4 6 8 10 12 13 15 16 16 19 18 19 20 22 24 26 26 24
3 2 2 3 5 6 8 11 12 13 15 17 18 16 17 19 20 22 24 27 29 27
3 3 4 5 5 7 8 10 12 14 15 17 20 16 17 19 21 22 24 27 30 30
5 5 5 5 6 7 8 10 13 15 16 17 20 18 18 18 20 22 25 26 30 30
6 6 7 7 8 9 8 10 12 14 15 16 18 21 18 17 19 22 24 25 26 28
8 8 8 9 9 10 10 10 11 12 15 16 16 21 22 19 19 23 25 25 27 28
10 10 11 12 11 10 8 7 9 12 13 15 15 18 20 20 19 22 23 24 27 27

GFSNIL_850_spd_144.txt.gz
Wind_Speed
7 9 10 11 11 12 12 14 15 16 18 20 19 19 18 16 14 12 9 8 9 12
8 8 9 8 8 9 9 10 11 13 15 16 17 18 18 20 19 17 14 12 11 12
7 8 8 7 6 7 8 8 9 11 13 13 14 16 18 20 21 21 20 16 14 15
7 7 6 6 7 8 8 9 10 11 12 13 13 14 16 17 20 21 20 20 19 19
6 6 6 7 7 8 8 9 10 10 11 12 13 14 16 17 18 19 21 21 20 21
6 8 7 7 7 7 8 8 8 9 11 12 13 13 15 17 18 18 19 19 19 21
8 9 8 7 7 5 5 6 8 10 12 11 12 13 14 15 15 17 18 19 18 19
8 8 7 6 5 4 4 5 8 10 11 11 11 13 14 14 15 16 17 18 19 18
8 7 5 4 2 1 5 7 8 10 11 11 12 12 14 15 16 16 17 19 21 20
7 6 5 3 3 3 5 7 8 10 11 13 12 11 13 15 15 16 17 20 21 22
8 7 6 5 4 3 5 6 8 9 11 12 15 11 12 13 14 15 16 18 23 24
8 7 7 7 5 5 4 5 7 8 8 10 13 14 11 10 12 14 16 17 20 24
8 8 10 9 6 4 2 5 7 8 8 9 11 14 14 11 11 14 15 16 18 21
11 12 12 11 8 5 0 3 6 8 9 10 11 14 14 15 14 16 15 17 18 19

GFSNIL_850_spd_147.txt.gz
Wind_Speed
5 6 7 8 9 10 11 12 11 11 12 12 13 13 14 15 15 13 11 11 11 11
6 6 7 7 8 9 10 10 10 11 10 10 9 10 13 14 15 15 13 13 13 13
6 6 7 7 7 8 8 9 10 10 9 9 9 10 11 13 14 15 15 15 15 15
6 6 6 6 6 8 8 9 9 9 9 8 10 10 11 12 13 14 14 14 15 15
5 5 5 5 6 8 8 8 8 8 9 9 9 10 10 12 13 14 14 14 15 15
6 6 5 6 7 7 7 7 7 7 7 8 8 9 10 12 13 14 15 14 15 17
6 6 6 5 5 5 5 5 6 6 7 6 7 8 9 11 12 13 14 15 14 15
7 7 6 5 3 3 3 4 5 7 8 7 8 7 10 10 11 13 14 14 14 14
9 8 6 4 2 1 2 3 4 6 7 7 7 7 10 11 12 12 13 14 14 14
9 7 5 3 2 1 0 2 4 5 6 8 6 6 8 10 11 11 12 14 15 16
10 8 6 5 3 2 0 2 3 3 5 8 10 7 6 8 9 10 10 13 17 18
9 8 8 7 4 2 1 2 2 3 3 4 7 12 6 6 8 8 9 9 14 17
10 10 9 7 5 1 1 3 4 3 2 3 4 7 10 6 6 8 9 10 11 15
12 12 10 8 5 2 2 4 5 3 2 2 3 7 8 8 8 10 11 11 12 14